Location: Kam�li
(14.6864°N, 3.1482°W)
Time: 02:29:39
(UTC+00:00)

Cosmos 2058 - Pass Details

Date: 29 October 2020
Orbit: 562 x 583 km, 82.5° (Epoch: 02 December)

Event Time Altitude Azimuth Distance (km) Brightness Sun altitude
Rises 19:14:18 0° 348° (NNW) 2,746 6.4 -22.0°
Reaches altitude 10° 19:16:30 10° 344° (NNW) 1,852 5.6 -22.5°
Maximum altitude 19:20:28 54° 267° (W) 687 3.5 -23.4°
Drops below altitude 10° 19:24:29 10° 189° (S) 1,860 5.7 -24.4°
Sets 19:26:42 0° 185° (S) 2,759 6.6 -24.9°
